| time (UTC) | temp C | wind direction | speed KPH | gust KPH | rain 1hr cm | rain 24hr cm | rain mn cm | humidity % | barometer mb |
| 20260506200656 | 27 | 118 | 16.1 | 29.0 | 0.00 | 0.00 | 0.00 | 66 | 1012.3 |
| 20260506200524 | 27 | 111 | 16.1 | 29.0 | 0.00 | 0.00 | 0.00 | 66 | 1012.5 |
| 20260506195658 | 27 | 67 | 16.1 | 29.0 | 0.00 | 0.00 | 0.00 | 66 | 1012.4 |
| 20260506195200 | 27 | 138 | 12.9 | 29.0 | 0.00 | 0.00 | 0.00 | 66 | 1012.4 |
| 20260506194657 | 27 | 136 | 11.3 | 29.0 | 0.00 | 0.00 | 0.00 | 66 | 1012.4 |
| 20260506194526 | 27 | 81 | 14.5 | 30.6 | 0.00 | 0.00 | 0.00 | 66 | 1012.4 |
| 20260506194031 | 27 | 137 | 12.9 | 30.6 | 0.00 | 0.00 | 0.00 | 65 | 1012.5 |
| 20260506193155 | 27 | 111 | 12.9 | 30.6 | 0.00 | 0.00 | 0.00 | 65 | 1012.4 |
| 20260506192656 | 27 | 98 | 14.5 | 30.6 | 0.00 | 0.00 | 0.00 | 65 | 1012.4 |
| 20260506192156 | 27 | 125 | 9.7 | 27.4 | 0.00 | 0.00 | 0.00 | 65 | 1012.5 |
| 20260506191654 | 27 | 92 | 11.3 | 29.0 | 0.00 | 0.00 | 0.00 | 65 | 1012.6 |
| 20260506191154 | 27 | 106 | 12.9 | 29.0 | 0.00 | 0.00 | 0.00 | 66 | 1012.6 |
| 20260506190654 | 27 | 82 | 12.9 | 27.4 | 0.00 | 0.00 | 0.00 | 66 | 1012.7 |
| 20260506190314 | 27 | 99 | 11.3 | 27.4 | 0.00 | 0.00 | 0.00 | 64 | 1012.8 |
| 20260506185154 | 27 | 116 | 14.5 | 25.7 | 0.00 | 0.00 | 0.00 | 67 | 1012.9 |
| 20260506184654 | 26 | 98 | 17.7 | 29.0 | 0.00 | 0.00 | 0.00 | 67 | 1013.0 |
| 20260506184154 | 26 | 92 | 16.1 | 30.6 | 0.00 | 0.00 | 0.00 | 66 | 1013.2 |
| 20260506183650 | 27 | 71 | 14.5 | 30.6 | 0.00 | 0.00 | 0.00 | 66 | 1013.1 |
| 20260506183151 | 27 | 90 | 14.5 | 30.6 | 0.00 | 0.00 | 0.00 | 66 | 1013.2 |
| 20260506182650 | 27 | 65 | 16.1 | 30.6 | 0.00 | 0.00 | 0.00 | 65 | 1013.3 |
| 20260506182149 | 27 | 111 | 16.1 | 29.0 | 0.00 | 0.00 | 0.00 | 65 | 1013.3 |
| 20260506181651 | 27 | 88 | 12.9 | 27.4 | 0.00 | 0.00 | 0.00 | 64 | 1013.4 |
| 20260506181548 | 27 | 101 | 12.9 | 29.0 | 0.00 | 0.00 | 0.00 | 65 | 1013.4 |
| 20260506180650 | 27 | 105 | 12.9 | 29.0 | 0.00 | 0.00 | 0.00 | 62 | 1013.4 |
| 20260506180151 | 27 | 140 | 11.3 | 27.4 | 0.00 | 0.00 | 0.00 | 65 | 1013.4 |
| 20260506175650 | 27 | 107 | 12.9 | 27.4 | 0.00 | 0.00 | 0.00 | 64 | 1013.6 |
| 20260506175146 | 27 | 91 | 11.3 | 27.4 | 0.00 | 0.00 | 0.00 | 66 | 1013.7 |
| 20260506174646 | 27 | 135 | 11.3 | 27.4 | 0.00 | 0.00 | 0.00 | 64 | 1013.7 |
| 20260506174146 | 27 | 111 | 12.9 | 27.4 | 0.00 | 0.00 | 0.00 | 64 | 1013.8 |
| 20260506173651 | 27 | 157 | 12.9 | 27.4 | 0.00 | 0.00 | 0.00 | 63 | 1013.8 |
| 20260506173149 | 27 | 98 | 12.9 | 24.1 | 0.00 | 0.00 | 0.00 | 62 | 1014.0 |
| 20260506172650 | 27 | 145 | 12.9 | 22.5 | 0.00 | 0.00 | 0.00 | 63 | 1014.1 |
| 20260506172146 | 27 | 103 | 11.3 | 22.5 | 0.00 | 0.00 | 0.00 | 63 | 1014.3 |
| 20260506172000 | 27 | 112 | 9.7 | 22.5 | 0.00 | 0.00 | 0.00 | 62 | 1014.3 |
| 20260506171146 | 27 | 113 | 8.0 | 19.3 | 0.00 | 0.00 | 0.00 | 64 | 1014.3 |
| 20260506171017 | 27 | 115 | 9.7 | 22.5 | 0.00 | 0.00 | 0.00 | 64 | 1014.3 |
| 20260506170142 | 27 | 127 | 8.0 | 22.5 | 0.00 | 0.00 | 0.00 | 64 | 1014.4 |
| 20260506165643 | 27 | 100 | 8.0 | 22.5 | 0.00 | 0.00 | 0.00 | 65 | 1014.4 |
| 20260506165511 | 27 | 139 | 11.3 | 24.1 | 0.00 | 0.00 | 0.00 | 64 | 1014.4 |
| 20260506165010 | 27 | 118 | 9.7 | 24.1 | 0.00 | 0.00 | 0.00 | 62 | 1014.6 |
| 20260506164140 | 28 | 91 | 8.0 | 24.1 | 0.00 | 0.00 | 0.00 | 61 | 1014.6 |
| 20260506163638 | 28 | 130 | 6.4 | 24.1 | 0.00 | 0.00 | 0.00 | 60 | 1014.6 |
| 20260506163459 | 28 | 140 | 8.0 | 22.5 | 0.00 | 0.00 | 0.00 | 60 | 1014.5 |
| 20260506162635 | 28 | 154 | 9.7 | 20.9 | 0.00 | 0.00 | 0.00 | 53 | 1014.6 |
| 20260506162134 | 28 | 108 | 9.7 | 19.3 | 0.00 | 0.00 | 0.00 | 53 | 1014.6 |
| 20260506161632 | 28 | 188 | 8.0 | 19.3 | 0.00 | 0.00 | 0.00 | 54 | 1014.7 |
| 20260506161132 | 28 | 165 | 8.0 | 25.7 | 0.00 | 0.00 | 0.00 | 53 | 1014.8 |
| 20260506160629 | 28 | 98 | 8.0 | 25.7 | 0.00 | 0.00 | 0.00 | 53 | 1014.7 |
| 20260506160132 | 27 | 189 | 6.4 | 16.1 | 0.00 | 0.00 | 0.00 | 55 | 1015.1 |
| 20260506160001 | 27 | 121 | 6.4 | 22.5 | 0.00 | 0.00 | 0.00 | 56 | 1015.0 |
| 20260506155123 | 27 | 97 | 6.4 | 22.5 | 0.00 | 0.00 | 0.00 | 55 | 1015.0 |
| 20260506154619 | 27 | 229 | 6.4 | 22.5 | 0.00 | 0.00 | 0.00 | 56 | 1014.8 |
| 20260506154117 | 27 | 135 | 9.7 | 22.5 | 0.00 | 0.00 | 0.00 | 56 | 1014.9 |
| 20260506153617 | 26 | 122 | 8.0 | 16.1 | 0.00 | 0.00 | 0.00 | 58 | 1014.9 |
| 20260506153114 | 26 | 175 | 8.0 | 16.1 | 0.00 | 0.00 | 0.00 | 57 | 1015.0 |
| 20260506152616 | 26 | 200 | 9.7 | 19.3 | 0.00 | 0.00 | 0.00 | 59 | 1015.1 |
| 20260506152112 | 26 | 159 | 8.0 | 19.3 | 0.00 | 0.00 | 0.00 | 59 | 1015.2 |
| 20260506151615 | 26 | 105 | 6.4 | 17.7 | 0.00 | 0.00 | 0.00 | 58 | 1015.2 |
| 20260506151110 | 26 | 132 | 8.0 | 22.5 | 0.00 | 0.00 | 0.00 | 58 | 1015.3 |
| 20260506151100 | 26 | 146 | 8.0 | 22.5 | 0.00 | 0.00 | 0.00 | 59 | 1015.2 |
| 20260506150325 | 26 | 134 | 8.0 | 24.1 | 0.00 | 0.00 | 0.00 | 59 | 1015.0 |
| 20260506145656 | 26 | 136 | 9.7 | 24.1 | 0.00 | 0.00 | 0.00 | 59 | 1014.8 |
| 20260506145106 | 26 | 175 | 9.7 | 25.7 | 0.00 | 0.00 | 0.00 | 60 | 1014.8 |
| 20260506144602 | 25 | 173 | 9.7 | 25.7 | 0.00 | 0.00 | 0.00 | 60 | 1014.7 |
| 20260506144102 | 25 | 137 | 8.0 | 24.1 | 0.00 | 0.00 | 0.00 | 61 | 1014.7 |
| 20260506143612 | 25 | 197 | 8.0 | 22.5 | 0.00 | 0.00 | 0.00 | 61 | 1014.7 |
| 20260506143106 | 25 | 137 | 8.0 | 22.5 | 0.00 | 0.00 | 0.00 | 62 | 1014.8 |
| 20260506142606 | 25 | 175 | 8.0 | 24.1 | 0.00 | 0.00 | 0.00 | 62 | 1014.8 |
| 20260506142455 | 25 | 142 | 9.7 | 24.1 | 0.00 | 0.00 | 0.00 | 62 | 1014.6 |
| 20260506141601 | 25 | 135 | 9.7 | 24.1 | 0.00 | 0.00 | 0.00 | 62 | 1014.6 |
| 20260506141102 | 25 | 167 | 6.4 | 19.3 | 0.00 | 0.00 | 0.00 | 63 | 1014.6 |
| 20260506140553 | 25 | 138 | 4.8 | 17.7 | 0.00 | 0.00 | 0.00 | 65 | 1014.7 |
| 20260506140046 | 24 | 117 | 8.0 | 17.7 | 0.00 | 0.00 | 0.00 | 65 | 1014.7 |
| 20260506135541 | 24 | 187 | 8.0 | 17.7 | 0.00 | 0.00 | 0.00 | 66 | 1014.6 |
| 20260506135035 | 24 | 105 | 8.0 | 20.9 | 0.00 | 0.00 | 0.00 | 67 | 1014.7 |
| 20260506134535 | 24 | 155 | 8.0 | 20.9 | 0.00 | 0.00 | 0.00 | 67 | 1014.6 |
| 20260506134034 | 23 | 178 | 8.0 | 22.5 | 0.00 | 0.00 | 0.00 | 67 | 1014.5 |
| 20260506133535 | 23 | 111 | 8.0 | 22.5 | 0.00 | 0.00 | 0.00 | 68 | 1014.3 |
| 20260506133031 | 23 | 191 | 8.0 | 20.9 | 0.00 | 0.00 | 0.00 | 69 | 1014.2 |
| 20260506132531 | 23 | 182 | 9.7 | 20.9 | 0.00 | 0.00 | 0.00 | 70 | 1014.3 |
| 20260506132425 | 23 | 122 | 9.7 | 20.9 | 0.00 | 0.00 | 0.00 | 70 | 1014.2 |
| 20260506131531 | 23 | 153 | 8.0 | 20.9 | 0.00 | 0.00 | 0.00 | 72 | 1014.2 |
| 20260506131032 | 23 | 166 | 8.0 | 19.3 | 0.00 | 0.00 | 0.00 | 72 | 1014.2 |
| 20260506130532 | 22 | 117 | 8.0 | 19.3 | 0.00 | 0.00 | 0.00 | 73 | 1014.3 |
| 20260506130032 | 22 | 143 | 6.4 | 20.9 | 0.00 | 0.00 | 0.00 | 73 | 1014.4 |
| 20260506125531 | 22 | 175 | 6.4 | 20.9 | 0.00 | 0.00 | 0.00 | 75 | 1014.3 |
| 20260506125032 | 22 | 74 | 6.4 | 20.9 | 0.00 | 0.00 | 0.00 | 75 | 1014.3 |
| 20260506124533 | 22 | 131 | 8.0 | 20.9 | 0.00 | 0.00 | 0.00 | 75 | 1014.3 |
| 20260506124032 | 22 | 189 | 6.4 | 17.7 | 0.00 | 0.00 | 0.00 | 75 | 1014.2 |
| 20260506123533 | 21 | 138 | 8.0 | 16.1 | 0.00 | 0.00 | 0.00 | 76 | 1014.3 |
| 20260506123032 | 21 | 112 | 8.0 | 24.1 | 0.00 | 0.00 | 0.00 | 77 | 1014.1 |
| 20260506122709 | 21 | 140 | 8.0 | 24.1 | 0.00 | 0.00 | 0.00 | 77 | 1014.1 |
| 20260506121744 | 21 | 142 | 6.4 | 17.7 | 0.00 | 0.00 | 0.00 | 80 | 1014.0 |
| 20260506121526 | 21 | 142 | 6.4 | 17.7 | 0.00 | 0.00 | 0.00 | 80 | 1014.0 |
| 20260506121019 | 21 | 148 | 6.4 | 17.7 | 0.00 | 0.00 | 0.00 | 80 | 1014.2 |
| 20260506120844 | 20 | 125 | 6.4 | 19.3 | 0.00 | 0.00 | 0.00 | 82 | 1014.1 |
| 20260506120013 | 20 | 120 | 4.8 | 19.3 | 0.00 | 0.00 | 0.00 | 84 | 1014.1 |
| 20260506115515 | 20 | 130 | 3.2 | 12.9 | 0.00 | 0.00 | 0.00 | 85 | 1014.0 |
| 20260506115405 | 19 | 163 | 3.2 | 11.3 | 0.00 | 0.00 | 0.00 | 87 | 1014.1 |
| 20260506114514 | 19 | 158 | 1.6 | 9.7 | 0.00 | 0.00 | 0.00 | 88 | 1013.9 |
| 20260506114012 | 18 | 165 | 1.6 | 8.0 | 0.00 | 0.00 | 0.00 | 89 | 1013.8 |
| 20260506113509 | 18 | 117 | 1.6 | 8.0 | 0.00 | 0.00 | 0.00 | 91 | 1013.8 |
| 20260506113007 | 18 | 121 | 1.6 | 4.8 | 0.00 | 0.00 | 0.00 | 92 | 1013.8 |
| 20260506112507 | 18 | 142 | 3.2 | 8.0 | 0.00 | 0.00 | 0.00 | 93 | 1013.7 |
| 20260506112355 | 18 | 138 | 3.2 | 8.0 | 0.00 | 0.00 | 0.00 | 93 | 1013.6 |
| 20260506111859 | 17 | 163 | 1.6 | 6.4 | 0.00 | 0.00 | 0.00 | 93 | 1013.6 |
| 20260506111007 | 17 | 109 | 3.2 | 6.4 | 0.00 | 0.00 | 0.00 | 93 | 1013.5 |
| 20260506110652 | 17 | 132 | 1.6 | 4.8 | 0.00 | 0.00 | 0.00 | 92 | 1013.5 |
| 20260506105505 | 17 | 134 | 1.6 | 3.2 | 0.00 | 0.00 | 0.00 | 92 | 1013.6 |
| 20260506105004 | 17 | 153 | 1.6 | 3.2 | 0.00 | 0.00 | 0.00 | 91 | 1013.5 |
| 20260506104824 | 17 | 140 | 1.6 | 3.2 | 0.00 | 0.00 | 0.00 | 91 | 1013.4 |
| 20260506104003 | 17 | 140 | 1.6 | 3.2 | 0.00 | 0.00 | 0.00 | 91 | 1013.4 |
| 20260506103501 | 17 | 140 | 1.6 | 3.2 | 0.00 | 0.00 | 0.00 | 90 | 1013.4 |
| 20260506103000 | 17 | 140 | 1.6 | 4.8 | 0.00 | 0.00 | 0.00 | 90 | 1013.4 |
| 20260506102453 | 17 | 140 | 1.6 | 4.8 | 0.00 | 0.00 | 0.00 | 90 | 1013.4 |
| 20260506101954 | 17 | 163 | 1.6 | 3.2 | 0.00 | 0.00 | 0.00 | 89 | 1013.5 |
| 20260506101449 | 18 | 163 | 1.6 | 3.2 | 0.00 | 0.00 | 0.00 | 89 | 1013.4 |
| 20260506100948 | 18 | 163 | 1.6 | 3.2 | 0.00 | 0.00 | 0.00 | 89 | 1013.4 |
| 20260506100449 | 18 | 163 | 0.0 | 3.2 | 0.00 | 0.00 | 0.00 | 88 | 1013.5 |
| 20260506095951 | 18 | 163 | 0.0 | 4.8 | 0.00 | 0.00 | 0.00 | 88 | 1013.5 |
| 20260506095448 | 18 | 163 | 0.0 | 4.8 | 0.00 | 0.00 | 0.00 | 88 | 1013.5 |
| 20260506094948 | 18 | 163 | 1.6 | 4.8 | 0.00 | 0.00 | 0.00 | 88 | 1013.4 |
| 20260506094445 | 18 | 122 | 1.6 | 4.8 | 0.00 | 0.00 | 0.00 | 88 | 1013.4 |
| 20260506093944 | 18 | 148 | 0.0 | 4.8 | 0.00 | 0.00 | 0.00 | 87 | 1013.4 |
| 20260506093446 | 18 | 171 | 0.0 | 6.4 | 0.00 | 0.00 | 0.00 | 87 | 1013.3 |
| 20260506092946 | 18 | 155 | 1.6 | 8.0 | 0.00 | 0.00 | 0.00 | 87 | 1013.3 |
| 20260506092447 | 18 | 166 | 1.6 | 8.0 | 0.00 | 0.00 | 0.00 | 87 | 1013.3 |
| 20260506091945 | 18 | 119 | 1.6 | 8.0 | 0.00 | 0.00 | 0.00 | 87 | 1013.3 |
| 20260506091445 | 18 | 129 | 3.2 | 8.0 | 0.00 | 0.00 | 0.00 | 87 | 1013.3 |
| 20260506090943 | 18 | 172 | 3.2 | 8.0 | 0.00 | 0.00 | 0.00 | 88 | 1013.3 |
| 20260506090630 | 18 | 137 | 1.6 | 8.0 | 0.00 | 0.00 | 0.00 | 88 | 1013.2 |
| 20260506085438 | 18 | 130 | 3.2 | 9.7 | 0.00 | 0.00 | 0.00 | 89 | 1013.2 |
| 20260506084938 | 18 | 109 | 3.2 | 9.7 | 0.00 | 0.00 | 0.00 | 89 | 1013.1 |
| 20260506084439 | 18 | 113 | 3.2 | 8.0 | 0.00 | 0.00 | 0.00 | 89 | 1013.1 |
| 20260506083940 | 18 | 108 | 3.2 | 9.7 | 0.00 | 0.00 | 0.00 | 89 | 1013.0 |
| 20260506083441 | 18 | 121 | 3.2 | 9.7 | 0.00 | 0.00 | 0.00 | 89 | 1013.0 |
| 20260506082940 | 18 | 101 | 3.2 | 6.4 | 0.00 | 0.00 | 0.00 | 89 | 1013.1 |
| 20260506082439 | 18 | 140 | 3.2 | 6.4 | 0.00 | 0.00 | 0.00 | 89 | 1013.1 |
| 20260506081940 | 18 | 112 | 1.6 | 4.8 | 0.00 | 0.00 | 0.00 | 88 | 1013.2 |
| 20260506081437 | 18 | 140 | 1.6 | 4.8 | 0.00 | 0.00 | 0.00 | 88 | 1013.2 |
| 20260506080937 | 19 | 128 | 1.6 | 4.8 | 0.00 | 0.00 | 0.00 | 88 | 1013.1 |
| 20260506080437 | 19 | 157 | 1.6 | 4.8 | 0.00 | 0.00 | 0.00 | 87 | 1013.1 |
| 20260506073432 | 20 | 124 | 1.6 | 4.8 | 0.00 | 0.00 | 0.00 | 85 | 1013.2 |
| 20260506072930 | 20 | 126 | 1.6 | 6.4 | 0.00 | 0.00 | 0.00 | 85 | 1013.1 |
| 20260506072844 | 20 | 118 | 3.2 | 6.4 | 0.00 | 0.00 | 0.00 | 85 | 1013.1 |
| 20260506071929 | 20 | 98 | 3.2 | 6.4 | 0.00 | 0.00 | 0.00 | 85 | 1013.1 |
| 20260506071429 | 20 | 124 | 3.2 | 11.3 | 0.00 | 0.00 | 0.00 | 85 | 1013.2 |
| 20260506070929 | 20 | 132 | 3.2 | 11.3 | 0.00 | 0.00 | 0.00 | 85 | 1013.2 |
| 20260506070429 | 20 | 161 | 3.2 | 11.3 | 0.00 | 0.00 | 0.00 | 85 | 1013.2 |
| 20260506070314 | 20 | 121 | 4.8 | 11.3 | 0.00 | 0.00 | 0.00 | 85 | 1013.1 |
| 20260506061428 | 20 | 125 | 4.8 | 12.9 | 0.00 | 0.00 | 0.00 | 82 | 1013.6 |
| 20260506060928 | 20 | 120 | 4.8 | 12.9 | 0.00 | 0.00 | 0.00 | 82 | 1013.7 |
| 20260506060430 | 20 | 94 | 3.2 | 9.7 | 0.00 | 0.00 | 0.00 | 81 | 1013.8 |
| 20260506051401 | 21 | 130 | 4.8 | 12.9 | 0.00 | 0.00 | 0.00 | 75 | 1014.2 |
| 20260506051241 | 21 | 139 | 6.4 | 16.1 | 0.00 | 0.00 | 0.00 | 75 | 1014.1 |
| 20260506050400 | 21 | 144 | 6.4 | 16.1 | 0.00 | 0.00 | 0.00 | 74 | 1014.1 |
| 20260506044902 | 21 | 113 | 9.7 | 22.5 | 0.00 | 0.00 | 0.00 | 73 | 1014.0 |
| 20260506044402 | 21 | 114 | 9.7 | 22.5 | 0.00 | 0.00 | 0.00 | 72 | 1014.0 |
| 20260506043904 | 21 | 128 | 8.0 | 22.5 | 0.00 | 0.00 | 0.00 | 72 | 1014.0 |
| 20260506043811 | 21 | 103 | 6.4 | 16.1 | 0.00 | 0.00 | 0.00 | 72 | 1014.1 |
| 20260506042901 | 21 | 113 | 6.4 | 16.1 | 0.00 | 0.00 | 0.00 | 72 | 1014.1 |
| 20260506042822 | 21 | 122 | 6.4 | 22.5 | 0.00 | 0.00 | 0.00 | 73 | 1014.1 |
| 20260506041901 | 21 | 113 | 6.4 | 22.5 | 0.00 | 0.00 | 0.00 | 72 | 1014.0 |
| 20260506041402 | 21 | 105 | 8.0 | 17.7 | 0.00 | 0.00 | 0.00 | 72 | 1014.1 |
| 20260506041326 | 21 | 129 | 6.4 | 17.7 | 0.00 | 0.00 | 0.00 | 72 | 1014.1 |
| 20260506040816 | 21 | 93 | 6.4 | 19.3 | 0.00 | 0.00 | 0.00 | 72 | 1014.2 |
| 20260506035904 | 21 | 81 | 8.0 | 19.3 | 0.00 | 0.00 | 0.00 | 71 | 1014.3 |
| 20260506035404 | 21 | 133 | 9.7 | 20.9 | 0.00 | 0.00 | 0.00 | 71 | 1014.3 |
| 20260506035320 | 21 | 91 | 8.0 | 20.9 | 0.00 | 0.00 | 0.00 | 71 | 1014.3 |
| 20260506034404 | 21 | 102 | 8.0 | 19.3 | 0.00 | 0.00 | 0.00 | 70 | 1014.3 |
| 20260506033901 | 21 | 145 | 8.0 | 17.7 | 0.00 | 0.00 | 0.00 | 70 | 1014.3 |
| 20260506033402 | 21 | 136 | 8.0 | 17.7 | 0.00 | 0.00 | 0.00 | 70 | 1014.3 |
| 20260506032902 | 21 | 128 | 8.0 | 17.7 | 0.00 | 0.00 | 0.00 | 70 | 1014.4 |
| 20260506032802 | 20 | 88 | 6.4 | 17.7 | 0.00 | 0.00 | 0.00 | 70 | 1014.5 |
| 20260506031901 | 20 | 118 | 6.4 | 16.1 | 0.00 | 0.00 | 0.00 | 70 | 1014.5 |
| 20260506031401 | 20 | 137 | 8.0 | 17.7 | 0.00 | 0.00 | 0.00 | 69 | 1014.4 |
| 20260506030902 | 20 | 108 | 8.0 | 17.7 | 0.00 | 0.00 | 0.00 | 69 | 1014.2 |
| 20260506030402 | 20 | 122 | 8.0 | 17.7 | 0.00 | 0.00 | 0.00 | 69 | 1014.2 |
| 20260506025905 | 20 | 102 | 8.0 | 20.9 | 0.00 | 0.00 | 0.00 | 69 | 1014.3 |
| 20260506025405 | 20 | 113 | 8.0 | 20.9 | 0.00 | 0.00 | 0.00 | 69 | 1014.2 |
| 20260506024901 | 20 | 98 | 8.0 | 20.9 | 0.00 | 0.00 | 0.00 | 69 | 1014.2 |
| 20260506024400 | 20 | 120 | 8.0 | 20.9 | 0.00 | 0.00 | 0.00 | 69 | 1014.1 |
| 20260506023854 | 20 | 106 | 6.4 | 16.1 | 0.00 | 0.00 | 0.00 | 70 | 1014.1 |
| 20260506023347 | 20 | 122 | 6.4 | 14.5 | 0.00 | 0.00 | 0.00 | 69 | 1014.0 |
| 20260506022842 | 20 | 112 | 6.4 | 16.1 | 0.00 | 0.00 | 0.00 | 70 | 1014.1 |
| 20260506022334 | 20 | 121 | 6.4 | 16.1 | 0.00 | 0.00 | 0.00 | 69 | 1014.1 |
| 20260506021832 | 20 | 104 | 6.4 | 16.1 | 0.00 | 0.00 | 0.00 | 68 | 1014.1 |
| 20260506021709 | 20 | 106 | 4.8 | 16.1 | 0.00 | 0.00 | 0.00 | 68 | 1014.0 |
| 20260506020831 | 20 | 111 | 4.8 | 14.5 | 0.00 | 0.00 | 0.00 | 68 | 1013.9 |
| 20260506020332 | 20 | 113 | 6.4 | 17.7 | 0.00 | 0.00 | 0.00 | 68 | 1013.8 |
| 20260506015831 | 20 | 116 | 6.4 | 17.7 | 0.00 | 0.00 | 0.00 | 68 | 1013.9 |
| 20260506015706 | 20 | 121 | 4.8 | 17.7 | 0.00 | 0.00 | 0.00 | 68 | 1013.8 |
| 20260506014833 | 20 | 80 | 4.8 | 17.7 | 0.00 | 0.00 | 0.00 | 68 | 1013.8 |
| 20260506014336 | 20 | 116 | 6.4 | 17.7 | 0.00 | 0.00 | 0.00 | 68 | 1013.7 |
| 20260506013832 | 20 | 93 | 6.4 | 17.7 | 0.00 | 0.00 | 0.00 | 68 | 1013.9 |
| 20260506013331 | 20 | 121 | 6.4 | 14.5 | 0.00 | 0.00 | 0.00 | 68 | 1014.0 |
| 20260506012831 | 20 | 119 | 6.4 | 16.1 | 0.00 | 0.00 | 0.00 | 67 | 1014.0 |
| 20260506012330 | 20 | 126 | 6.4 | 16.1 | 0.00 | 0.00 | 0.00 | 68 | 1013.9 |
| 20260506011835 | 20 | 69 | 6.4 | 14.5 | 0.00 | 0.00 | 0.00 | 67 | 1013.9 |
| 20260506011748 | 20 | 121 | 6.4 | 14.5 | 0.00 | 0.00 | 0.00 | 67 | 1013.9 |
| 20260506010829 | 20 | 119 | 4.8 | 12.9 | 0.00 | 0.00 | 0.00 | 67 | 1013.9 |
| 20260506010330 | 20 | 130 | 4.8 | 11.3 | 0.00 | 0.00 | 0.00 | 67 | 1013.8 |
| 20260506005830 | 20 | 92 | 4.8 | 11.3 | 0.00 | 0.00 | 0.00 | 67 | 1013.8 |
| 20260506005330 | 20 | 96 | 4.8 | 11.3 | 0.00 | 0.00 | 0.00 | 67 | 1013.8 |
| 20260506005244 | 20 | 92 | 4.8 | 11.3 | 0.00 | 0.00 | 0.00 | 67 | 1013.6 |
| 20260506004758 | 20 | 125 | 4.8 | 11.3 | 0.00 | 0.00 | 0.00 | 67 | 1013.6 |
| 20260506003829 | 20 | 98 | 4.8 | 12.9 | 0.00 | 0.00 | 0.00 | 67 | 1013.6 |
| 20260506003329 | 20 | 89 | 4.8 | 12.9 | 0.00 | 0.00 | 0.00 | 67 | 1013.6 |
| 20260506002830 | 20 | 119 | 6.4 | 14.5 | 0.00 | 0.00 | 0.00 | 67 | 1013.5 |
| 20260506002331 | 20 | 83 | 6.4 | 14.5 | 0.00 | 0.00 | 0.00 | 67 | 1013.4 |
| 20260506001834 | 21 | 94 | 6.4 | 16.1 | 0.00 | 0.00 | 0.00 | 66 | 1013.3 |
| 20260506001330 | 21 | 123 | 6.4 | 16.1 | 0.00 | 0.00 | 0.00 | 65 | 1013.3 |
| 20260506001302 | 21 | 90 | 6.4 | 14.5 | 0.00 | 0.00 | 0.00 | 64 | 1013.3 |
| 20260506000333 | 21 | 118 | 6.4 | 19.3 | 0.00 | 0.00 | 0.00 | 64 | 1013.3 |
| 20260505235829 | 21 | 102 | 8.0 | 19.3 | 0.00 | 0.00 | 0.00 | 63 | 1013.3 |
| 20260505235329 | 21 | 95 | 9.7 | 19.3 | 0.00 | 0.00 | 0.00 | 63 | 1013.6 |
| 20260505234829 | 21 | 93 | 8.0 | 20.9 | 0.00 | 0.00 | 0.00 | 63 | 1013.6 |
| 20260505234736 | 21 | 136 | 6.4 | 20.9 | 0.00 | 0.00 | 0.00 | 63 | 1013.6 |
| 20260505233832 | 21 | 105 | 8.0 | 20.9 | 0.00 | 0.00 | 0.00 | 63 | 1013.5 |
| 20260505233329 | 21 | 102 | 9.7 | 22.5 | 0.00 | 0.00 | 0.00 | 62 | 1013.4 |
| 20260505232828 | 21 | 100 | 8.0 | 22.5 | 0.00 | 0.00 | 0.00 | 63 | 1013.5 |
| 20260505232329 | 22 | 255 | 6.4 | 20.9 | 0.00 | 0.00 | 0.00 | 62 | 1013.5 |
| 20260505231827 | 22 | 96 | 6.4 | 20.9 | 0.00 | 0.00 | 0.00 | 61 | 1013.6 |
| 20260505231421 | 22 | 118 | 11.3 | 25.7 | 0.00 | 0.00 | 0.00 | 60 | 1013.6 |
| 20260505231333 | 22 | 180 | 8.0 | 25.7 | 0.00 | 0.00 | 0.00 | 60 | 1013.6 |
| 20260505230330 | 22 | 134 | 12.9 | 25.7 | 0.00 | 0.00 | 0.00 | 59 | 1013.6 |
| 20260505225838 | 22 | 96 | 12.9 | 25.7 | 0.00 | 0.00 | 0.00 | 57 | 1013.5 |
| 20260505225337 | 22 | 101 | 9.7 | 24.1 | 0.00 | 0.00 | 0.00 | 58 | 1013.4 |
| 20260505224833 | 22 | 85 | 9.7 | 24.1 | 0.00 | 0.00 | 0.00 | 55 | 1013.3 |
| 20260505224804 | 22 | 109 | 9.7 | 24.1 | 0.00 | 0.00 | 0.00 | 56 | 1013.4 |
| 20260505223828 | 22 | 98 | 9.7 | 24.1 | 0.00 | 0.00 | 0.00 | 55 | 1013.4 |
| 20260505223332 | 22 | 63 | 11.3 | 22.5 | 0.00 | 0.00 | 0.00 | 54 | 1013.6 |
| 20260505222836 | 22 | 99 | 9.7 | 22.5 | 0.00 | 0.00 | 0.00 | 53 | 1013.6 |
| 20260505222327 | 23 | 105 | 11.3 | 25.7 | 0.00 | 0.00 | 0.00 | 53 | 1013.6 |
| 20260505221832 | 23 | 82 | 12.9 | 25.7 | 0.00 | 0.00 | 0.00 | 54 | 1013.6 |
| 20260505221336 | 23 | 89 | 12.9 | 24.1 | 0.00 | 0.00 | 0.00 | 55 | 1013.5 |
| 20260505220824 | 23 | 69 | 14.5 | 29.0 | 0.00 | 0.00 | 0.00 | 54 | 1013.5 |
| 20260505220332 | 23 | 101 | 12.9 | 29.0 | 0.00 | 0.00 | 0.00 | 55 | 1013.7 |
| 20260505215825 | 23 | 140 | 11.3 | 27.4 | 0.00 | 0.00 | 0.00 | 56 | 1013.7 |
| 20260505215749 | 23 | 112 | 12.9 | 27.4 | 0.00 | 0.00 | 0.00 | 56 | 1013.6 |
| 20260505215235 | 23 | 138 | 12.9 | 27.4 | 0.00 | 0.00 | 0.00 | 56 | 1013.6 |
| 20260505214320 | 23 | 105 | 12.9 | 27.4 | 0.00 | 0.00 | 0.00 | 58 | 1013.6 |
| 20260505213821 | 23 | 124 | 12.9 | 27.4 | 0.00 | 0.00 | 0.00 | 56 | 1013.7 |
| 20260505213317 | 23 | 102 | 9.7 | 27.4 | 0.00 | 0.00 | 0.00 | 56 | 1013.6 |
| 20260505212819 | 23 | 120 | 9.7 | 22.5 | 0.00 | 0.00 | 0.00 | 59 | 1013.7 |
| 20260505212318 | 23 | 144 | 11.3 | 22.5 | 0.00 | 0.00 | 0.00 | 58 | 1013.7 |
| 20260505211821 | 23 | 88 | 11.3 | 20.9 | 0.00 | 0.00 | 0.00 | 57 | 1013.8 |
| 20260505211319 | 23 | 84 | 11.3 | 25.7 | 0.00 | 0.00 | 0.00 | 57 | 1013.8 |
| 20260505210818 | 23 | 75 | 14.5 | 25.7 | 0.00 | 0.00 | 0.00 | 57 | 1013.7 |
| 20260505210316 | 23 | 98 | 14.5 | 29.0 | 0.00 | 0.00 | 0.00 | 56 | 1013.9 |
| 20260505205816 | 23 | 92 | 11.3 | 29.0 | 0.00 | 0.00 | 0.00 | 56 | 1013.9 |
| 20260505205316 | 23 | 103 | 9.7 | 29.0 | 0.00 | 0.00 | 0.00 | 56 | 1013.8 |
| 20260505205157 | 23 | 85 | 14.5 | 29.0 | 0.00 | 0.00 | 0.00 | 57 | 1013.8 |
| 20260505204316 | 23 | 79 | 12.9 | 29.0 | 0.00 | 0.00 | 0.00 | 56 | 1013.9 |
| 20260505203816 | 23 | 94 | 11.3 | 29.0 | 0.00 | 0.00 | 0.00 | 56 | 1013.8 |
| 20260505203321 | 23 | 102 | 12.9 | 29.0 | 0.00 | 0.00 | 0.00 | 57 | 1013.9 |
| 20260505203315 | 24 | 128 | 11.3 | 29.0 | 0.00 | 0.00 | 0.00 | 55 | 1013.9 |
| 20260505202316 | 24 | 98 | 12.9 | 27.4 | 0.00 | 0.00 | 0.00 | 56 | 1014.0 |
| 20260505201828 | 24 | 109 | 12.9 | 27.4 | 0.00 | 0.00 | 0.00 | 56 | 1014.0 |